Regional Weather Roundup
Issued by NWS Cleveland, OH

Home | Current Version | Previous Version | Graphics & Text | Print | Product List | Glossary On
Versions: 1 2 3 4 5 6 7 8 9 10 11 12 13 14 15 16 17 18 19 20 21 22 23 24 25 26 27 28 29 30 31 32 33 34 35 36 37 38 39 40 41 42 43 44 45 46 47 48 49 50
000
ASUS41 KCLE 190210
RWRCLE
OHIO REGIONAL WEATHER ROUNDUP
NATIONAL WEATHER SERVICE CLEVELAND, OH
1000 PM EDT WED OCT 18 2017

NOTE: "FAIR" INDICATES FEW OR NO CLOUDS BELOW 12,000 FEET WITH NO
SIGNIFICANT WEATHER AND/OR OBSTRUCTIONS TO VISIBILITY.

OHZ001>008-015>018-024>027-034-035-043-044-190300-
   NORTHWEST OHIO

CITY           SKY/WX    TMP DP  RH WIND       PRES   REMARKS
DEFIANCE       CLEAR     55  40  56 S7        30.12F
FINDLAY        CLEAR     50  39  66 S9        30.14F
TOLEDO EXPRESS CLEAR     58  43  57 S8        30.12F
TOLEDO EXEC    CLEAR     60  40  47 S14       30.13F
LIMA           CLEAR     56  42  59 S8        30.16S
$$

OHZ009>014-019>023-028>033-038-089-190300-
   NORTHEAST OHIO

CITY           SKY/WX    TMP DP  RH WIND       PRES   REMARKS
CLE-HOPKINS    PTCLDY    56  41  57 S9        30.18F
CLE-LAKEFRONT  CLEAR     60  40  47 S9        30.15F
CUY CO. ARPT   CLEAR     59  43  55 S8        30.17F
LORAIN-ELYRIA  CLEAR     56  36  47 S10       30.17F
ASHTABULA      CLEAR     54  43  66 S6        30.18F
AKRON-CANTON   CLEAR     55  38  52 S8        30.19F
WOOSTER        CLEAR     44  40  85 S3        30.19F
MANSFIELD      CLEAR     54  39  57 S10       30.19S
YOUNGSTOWN     PTCLDY    56  41  57 S6        30.20F
$$

OHZ042-051>053-060>062-070>072-077>081-190300-
  SOUTHWEST OHIO

CITY           SKY/WX    TMP DP  RH WIND       PRES   REMARKS
CINC-COVINGTON CLEAR     52  46  80 S7        30.20F
CINC-LUNKEN    CLEAR     49  48  97 CALM      30.21F
HAMILTON       CLEAR     46  44  93 S3        30.20F
DAYTON         CLEAR     57  44  62 S7        30.19F
WRIGHT-PAT AFB CLEAR     56  42  59 S9        30.18F
DAYTON GENERAL CLEAR     54  43  66 S6        30.19S
WILMINGTON     CLEAR     52  44  74 S6        30.21S
$$

OHZ036-037-039>041-045>050-054>059-063>069-073>076-082>088-190300-
  CENTRAL AND SOUTHEAST OHIO

CITY           SKY/WX    TMP DP  RH WIND       PRES   REMARKS
COLUMBUS       CLEAR     57  41  55 SE5       30.20F
OSU AIRPORT    CLEAR     56  43  61 S6        30.20S
BOLTON FIELD   CLEAR     55  42  63 S6        30.21R
RICKENBACK AFB CLEAR     51  41  69 S5        30.20S
NEWARK         CLEAR     45  41  86 CALM      30.20F
MARION         CLEAR     52  39  61 S6        30.18F
LANCASTER      CLEAR     44  42  93 CALM      30.22S
ZANESVILLE     CLEAR     51  41  68 CALM      30.21F
NEW PHILLY     NOT AVBL
$$




USA.gov is the U.S. government's official web portal to all federal, state and local government web resources and services.